EW7633 Weather Reports


time (UTC)temp
C
wind
direction
speed
KPH
gust
KPH
rain 1hr
cm
rain 24hr
cm
rain mn
cm
humidity
%
barometer
mb
20260906190028 27 279 0.0 4.8 0.00 0.00 0.00 75 1014.6
20260906184527 27 26 3.2 4.8 0.00 0.00 0.00 75 1014.2
20260906183027 27 58 0.0 8.0 0.00 0.00 0.00 75 1014.4
20260906181529 27 44 1.6 6.4 0.00 0.00 0.00 75 1014.5
20260906180024 27 101 1.6 3.2 0.00 0.00 0.00 73 1014.6
20260906174523 27 244 0.0 4.8 0.00 0.00 0.00 74 1014.8
20260906173023 27 109 0.0 4.8 0.00 0.00 0.00 76 1015.0
20260906171519 27 188 0.0 4.8 0.00 0.00 0.00 76 1015.1
20260906170042 26 109 0.0 4.8 0.00 0.00 0.00 77 1015.1
20260906164519 26 300 0.0 3.2 0.00 0.00 0.00 77 1015.3
20260906163013 26 35 3.2 6.4 0.00 0.00 0.00 77 1015.4
20260906161512 26 9 0.0 4.8 0.00 0.00 0.00 78 1015.5
20260906160011 26 39 3.2 9.7 0.00 0.00 0.00 79 1015.1
20260906154518 26 24 4.8 8.0 0.00 0.00 0.00 79 1015.4
20260906153016 26 327 1.6 6.4 0.00 0.00 0.00 79 1015.3
20260906151509 26 19 0.0 4.8 0.00 0.00 0.00 77 1015.3
20260906150007 25 251 0.0 3.2 0.00 0.00 0.00 82 1015.3
20260906144506 25 240 0.0 1.6 0.00 0.00 0.00 82 1015.4
20260906143009 25 355 0.0 3.2 0.00 0.00 0.00 83 1015.2
20260906141503 24 5 0.0 3.2 0.00 0.00 0.00 83 1015.3
20260906140008 24 299 0.0 3.2 0.00 0.00 0.00 83 1015.5
20260906134502 23 238 1.6 4.8 0.00 0.00 0.00 83 1015.5
20260906133200 23 225 1.6 4.8 0.00 0.00 0.00 85 1015.3
20260906131557 23 123 0.0 3.2 0.00 0.00 0.00 84 1014.6
20260906130056 23 120 0.0 1.6 0.00 0.00 0.00 83 1014.5
20260906124555 23 88 0.0 3.2 0.00 0.00 0.00 83 1014.4
20260906123137 23 92 0.0 0.0 0.00 0.00 0.00 83 1014.2
20260906121550 23 159 0.0 0.0 0.00 0.00 0.00 84 1013.9
20260906120049 23 159 0.0 1.6 0.00 0.00 0.00 84 1013.8
20260906114546 23 121 0.0 3.2 0.00 0.00 0.00 83 1013.7
20260906113046 23 129 0.0 3.2 0.00 0.00 0.00 83 1013.7
20260906111545 23 113 0.0 3.2 0.00 0.00 0.00 82 1013.5
20260906110044 23 135 0.0 1.6 0.00 0.00 0.00 82 1013.5
20260906104543 23 169 0.0 4.8 0.00 0.00 0.00 82 1013.5
20260906103048 23 115 0.0 1.6 0.00 0.00 0.00 83 1013.6
20260906101544 23 156 0.0 0.0 0.00 0.00 0.00 83 1013.5
20260906100057 23 140 0.0 3.2 0.00 0.00 0.00 83 1013.4
20260906094542 23 118 0.0 3.2 0.00 0.00 0.00 83 1013.4
20260906093046 23 126 0.0 0.0 0.00 0.00 0.00 83 1013.4
20260906091556 24 126 0.0 0.0 0.00 0.00 0.00 83 1013.4
20260906090040 24 142 0.0 1.6 0.00 0.00 0.00 83 1013.5
20260906084540 24 139 0.0 3.2 0.00 0.00 0.00 83 1013.5
20260906083039 23 78 0.0 0.0 0.00 0.00 0.00 86 1013.6
20260906081541 23 78 0.0 1.6 0.00 0.00 0.00 87 1013.5
20260906080041 23 78 0.0 3.2 0.00 0.00 0.00 88 1013.4
20260906074545 23 78 0.0 0.0 0.00 0.00 0.00 88 1013.4
20260906073040 23 78 0.0 0.0 0.00 0.00 0.00 87 1013.3
20260906071533 24 78 0.0 3.2 0.00 0.00 0.00 86 1013.2
20260906070101 24 78 0.0 0.0 0.00 0.00 0.00 86 1013.2
20260906064533 24 78 0.0 3.2 0.00 0.00 0.00 86 1013.3
20260906063030 24 78 0.0 0.0 0.00 0.00 0.00 84 1013.4
20260906061527 25 78 0.0 3.2 0.00 0.00 0.00 83 1013.4
20260906060023 25 89 0.0 4.8 0.00 0.00 0.00 83 1013.5
20260906054522 25 88 1.6 4.8 0.00 0.00 0.00 83 1013.5
20260906053020 25 60 1.6 4.8 0.00 0.00 0.00 82 1013.6
20260906051518 25 44 1.6 4.8 0.00 0.00 0.00 81 1013.4
20260906050015 26 52 1.6 3.2 0.00 0.00 0.00 79 1013.4
20260906044513 25 80 0.0 3.2 0.00 0.00 0.00 79 1013.3
20260906043020 26 100 0.0 3.2 0.00 0.00 0.00 78 1013.2
20260906041523 26 81 0.0 3.2 0.00 0.00 0.00 75 1013.2
20260906040022 27 68 1.6 3.2 0.00 0.00 0.00 74 1013.2
20260906034509 27 70 1.6 3.2 0.00 0.00 0.00 74 1013.2
20260906033019 27 51 1.6 3.2 0.00 0.00 0.00 73 1013.2
20260906031507 27 57 1.6 3.2 0.00 0.00 0.00 73 1013.1
20260906030017 27 50 0.0 3.2 0.00 0.00 0.00 73 1012.9
20260906024506 27 84 0.0 3.2 0.00 0.00 0.00 74 1012.6
20260906023006 27 84 0.0 0.0 0.00 0.00 0.00 74 1012.4
20260906021504 28 84 0.0 3.2 0.00 0.00 0.00 73 1012.0
20260906020009 28 74 1.6 3.2 0.00 0.00 0.00 69 1011.8
20260906014506 29 85 1.6 3.2 0.00 0.00 0.00 68 1011.6
20260906013002 30 173 0.0 0.0 0.00 0.00 0.00 67 1011.4
20260906011501 30 173 0.0 3.2 0.00 0.00 0.00 65 1011.2
20260906010001 30 173 0.0 3.2 0.00 0.00 0.00 64 1011.2
20260906004501 31 173 0.0 3.2 0.00 0.00 0.00 63 1011.2
20260906003105 31 173 0.0 3.2 0.00 0.00 0.00 61 1011.1
20260906001601 32 171 0.0 8.0 0.00 0.00 0.00 60 1011.1
20260906001505 32 175 1.6 8.0 0.00 0.00 0.00 60 1011.1
20260906000004 32 179 3.2 8.0 0.00 0.00 0.00 58 1011.1
20260905234559 33 146 1.6 6.4 0.00 0.00 0.00 56 1011.2
20260905233059 33 206 6.4 14.5 0.00 0.00 0.00 54 1011.0
20260905231559 33 193 6.4 16.1 0.00 0.00 0.00 53 1010.8
20260905230058 34 198 3.2 14.5 0.00 0.00 0.00 51 1010.9
20260905224557 34 195 6.4 17.7 0.00 0.00 0.00 52 1010.8
20260905223055 34 162 8.0 16.1 0.00 0.00 0.00 55 1010.9
20260905221553 34 190 6.4 16.1 0.00 0.00 0.00 54 1010.8
20260905220052 33 167 8.0 17.7 0.00 0.00 0.00 57 1010.7
20260905214548 33 132 6.4 16.1 0.00 0.00 0.00 64 1010.8
20260905213044 32 122 8.0 16.1 0.00 0.00 0.00 65 1011.1
20260905211550 32 109 8.0 17.7 0.00 0.00 0.00 65 1011.3
20260905211508 32 65 9.7 17.7 0.00 0.00 0.00 65 1011.4
20260905210047 32 67 8.0 19.3 0.00 0.00 0.00 65 1011.5
20260905204544 32 71 9.7 20.9 0.00 0.00 0.00 64 1011.9
20260905203100 32 98 8.0 20.9 0.00 0.00 0.00 65 1012.1
20260905201536 32 98 9.7 17.7 0.00 0.00 0.00 65 1012.5
20260905200038 32 95 8.0 17.7 0.00 0.00 0.00 65 1012.8
20260905194531 31 115 4.8 20.9 0.00 0.00 0.00 66 1013.0
20260905193030 31 105 11.3 22.5 0.00 0.00 0.00 66 1013.4
20260905191529 31 25 11.3 24.1 0.00 0.00 0.00 64 1013.8